When you browse on this site, cookies collect data to enhance your experience and personalize the content and advertising you see.
Visit our Privacy Policy to learn more. By continuing to use the site, you agree to this use of cookies and data.
  • In Hungary
  • List of Countries
  • For 7 days
  • Water Temperature
  • Satellite Maps
  • Weather Map
  • News
  • Weather Widgets
  • user-avatar
    Login

    Hourly Weather Nyzhni Petrivtsi

    Today, 16 July, Tuesday

    Time Temperature Precipitation Wind Pressure Humidity
    00:00 +14°C° 0 mm 2 mps 721 mmHg 94%
    01:00 +14°C° 0 mm 2 mps 721 mmHg 95%
    02:00 +13°C° 0 mm 2 mps 721 mmHg 98%
    03:00 +13°C° 0 mm 2 mps 721 mmHg 99%
    04:00 +13°C° 0 mm 2 mps 721 mmHg 99%
    05:00 +13°C° 0 mm 2 mps 721 mmHg 99%
    06:00 +14°C° 0 mm 2 mps 721 mmHg 99%
    07:00 +15°C° 0 mm 2 mps 721 mmHg 97%
    08:00 +16°C° 0 mm 3 mps 722 mmHg 94%
    09:00 +18°C° 0 mm 3 mps 722 mmHg 92%
    10:00 +18°C° 0 mm 3 mps 722 mmHg 90%
    11:00 +19°C° 0 mm 3 mps 722 mmHg 88%
    12:00 +20°C° 0 mm 3 mps 722 mmHg 85%
    13:00 +20°C° 0 mm 3 mps 722 mmHg 81%
    14:00 +21°C° 0 mm 2 mps 721 mmHg 79%
    15:00 +21°C° 0 mm 2 mps 721 mmHg 75%
    16:00 +21°C° 0 mm 2 mps 720 mmHg 79%
    17:00 +22°C° 0 mm 1 mps 720 mmHg 77%
    18:00 +18°C° 1.9 mm 4 mps 720 mmHg 88%
    19:00 +19°C° 5.2 mm 1 mps 720 mmHg 92%
    20:00 +17°C° 0 mm 0 mps 720 mmHg 92%
    21:00 +17°C° 0 mm 0 mps 720 mmHg 89%
    22:00 +17°C° 0 mm 0 mps 720 mmHg 90%
    23:00 +18°C° 0 mm 1 mps 720 mmHg 92%

    Tomorrow, 17 July, Wednesday

    Time Temperature Precipitation Wind Pressure Humidity
    00:00 +18°C° 0 mm 1 mps 720 mmHg 93%
    01:00 +16°C° 0 mm 2 mps 719 mmHg 91%
    02:00 +15°C° 0 mm 2 mps 719 mmHg 92%
    03:00 +14°C° 0 mm 5 mps 720 mmHg 95%
    04:00 +13°C° 0 mm 3 mps 720 mmHg 100%
    05:00 +14°C° 0 mm 2 mps 720 mmHg 98%
    06:00 +14°C° 0 mm 3 mps 719 mmHg 97%
    07:00 +16°C° 0 mm 3 mps 720 mmHg 95%
    08:00 +17°C° 0 mm 4 mps 720 mmHg 94%
    09:00 +17°C° 0 mm 4 mps 721 mmHg 96%
    10:00 +17°C° 0 mm 4 mps 721 mmHg 94%
    11:00 +18°C° 0 mm 4 mps 721 mmHg 90%
    12:00 +19°C° 0 mm 4 mps 721 mmHg 85%
    13:00 +20°C° 0 mm 4 mps 721 mmHg 84%
    14:00 +20°C° 0 mm 4 mps 720 mmHg 86%
    15:00 +20°C° 0 mm 2 mps 720 mmHg 83%
    16:00 +20°C° 0 mm 2 mps 720 mmHg 82%
    17:00 +21°C° 0 mm 1 mps 720 mmHg 84%
    18:00 +21°C° 0 mm 1 mps 720 mmHg 85%
    19:00 +19°C° 0 mm 0 mps 720 mmHg 86%
    20:00 +18°C° 0.2 mm 0 mps 720 mmHg 94%
    21:00 +19°C° 0.9 mm 1 mps 720 mmHg 96%
    22:00 +19°C° 0 mm 1 mps 720 mmHg 98%
    23:00 +18°C° 0 mm 1 mps 721 mmHg 96%

    Day after tomorrow, 18 July, Thursday

    Time Temperature Precipitation Wind Pressure Humidity
    00:00 +18°C° 0 mm 1 mps 721 mmHg 96%
    01:00 +16°C° 0 mm 2 mps 721 mmHg 95%
    02:00 +16°C° 0 mm 2 mps 721 mmHg 94%
    03:00 +15°C° 0 mm 2 mps 721 mmHg 96%
    04:00 +14°C° 0 mm 2 mps 721 mmHg 96%
    05:00 +14°C° 0 mm 2 mps 721 mmHg 95%
    06:00 +14°C° 0 mm 2 mps 721 mmHg 97%
    07:00 +14°C° 0 mm 3 mps 721 mmHg 95%
    08:00 +15°C° 0 mm 4 mps 722 mmHg 94%
    09:00 +17°C° 0 mm 3 mps 722 mmHg 93%
    10:00 +18°C° 0 mm 3 mps 723 mmHg 93%
    11:00 +18°C° 0 mm 3 mps 723 mmHg 91%
    12:00 +19°C° 0 mm 3 mps 723 mmHg 88%
    13:00 +20°C° 0 mm 4 mps 723 mmHg 86%
    14:00 +20°C° 0 mm 4 mps 723 mmHg 83%
    15:00 +20°C° 0 mm 3 mps 723 mmHg 84%
    16:00 +20°C° 0 mm 2 mps 723 mmHg 85%
    17:00 +20°C° 0.3 mm 2 mps 723 mmHg 86%
    18:00 +20°C° 0.3 mm 1 mps 723 mmHg 92%
    19:00 +18°C° 0 mm 0 mps 723 mmHg 87%
    20:00 +18°C° 0 mm 0 mps 723 mmHg 91%
    21:00 +17°C° 0 mm 0 mps 724 mmHg 89%
    22:00 +19°C° 0 mm 1 mps 724 mmHg 92%
    23:00 +18°C° 0 mm 1 mps 724 mmHg 96%

    19 July, Friday

    Time Temperature Precipitation Wind Pressure Humidity
    00:00 +18°C° 0 mm 1 mps 724 mmHg 96%
    01:00 +18°C° 0 mm 1 mps 724 mmHg 96%
    02:00 +16°C° 0 mm 0 mps 724 mmHg 95%
    03:00 +18°C° 0 mm 1 mps 724 mmHg 96%
    04:00 +18°C° 0 mm 1 mps 724 mmHg 96%
    05:00 +16°C° 0 mm 1 mps 724 mmHg 96%
    06:00 +18°C° 0 mm 1 mps 724 mmHg 97%
    07:00 +18°C° 0 mm 1 mps 724 mmHg 94%
    08:00 +19°C° 0 mm 2 mps 724 mmHg 91%
    09:00 +20°C° 0 mm 3 mps 725 mmHg 91%
    10:00 +21°C° 0 mm 3 mps 725 mmHg 92%
    11:00 +21°C° 0 mm 3 mps 725 mmHg 92%
    12:00 +22°C° 0 mm 3 mps 724 mmHg 90%
    13:00 +24°C° 0 mm 3 mps 724 mmHg 89%
    14:00 +23°C° 0 mm 4 mps 724 mmHg 89%

    20 July, Saturday

    Time Temperature Precipitation Wind Pressure Humidity

    21 July, Sunday

    Time Temperature Precipitation Wind Pressure Humidity
    Show more